IRIDIUM 83 [-]

Last updated on Tue Nov 06 2018 00:08:23 GMT+0000 (Coordinated Universal Time)

1 25531U 98066E 18309.41791031 .19656061 -15213-5 23675-3 0 9990 2 25531 86.3696 136.3305 0050094 91.1680 269.5370 16.44088461 47195

Satellite not in orbit